Weather History for Joplin, MO

Change the Weather History Date:

Thursday, November 24, 2011

  Actual Average Record
Temperature  
Mean Temperature 53 °F 44 °F  
Max Temperature 65 °F 55 °F 76 °F (2006)
Min Temperature 41 °F 34 °F 10 °F (1950)
Degree Days  
Heating Degree Days 12 21  
Month to date heating degree days 327 372  
Since 1 July heating degree days 593 624  
Cooling Degree Days 0 0  
Month to date cooling degree days 1 5  
Year to date cooling degree days 2190 1696  
Growing Degree Days 2 (Base 50)    
Moisture  
Dew Point 41 °F    
Average Humidity 67    
Maximum Humidity 93    
Minimum Humidity 40    
Precipitation  
Precipitation 0.00 in 0.12 in 3.35 in (1987)
Month to date precipitation 4.73 3.06  
Year to date precipitation 35.25 43.01  
Sea Level Pressure  
Sea Level Pressure 30.18 in    
Wind  
Wind Speed 10 mph (South)    
Max Wind Speed 21 mph    
Max Gust Speed 24 mph    
Visibility 9 miles    
Events      
T = Trace of Precipitation, MM = Missing Value Source: NWS Daily Summary

Daily Weather History Graph

Daily Weather History Graph

Search for Another Location

Airport:

Trip Planner

Search our weather history database for the weather conditions in past years. The results will help you decide how hot, cold, wet, or windy it might be!

Date:

Astronomy

Nov. 24, 2011 Rise Set
Actual Time 7:05 AM CST 5:03 PM CST
Civil Twilight 6:37 AM CST 5:31 PM CST
Nautical Twilight 6:05 AM CST 6:03 PM CST
Astronomical Twilight 5:34 AM CST 6:34 PM CST
Moon 6:24 AM CST (11/24) 4:35 PM CST (11/24)
Length of Visible Light 10h 53m
Length of Day
9h 57m
Waning Crescent, 0% of the Moon is Illuminated
Nov 24
Waning Crescent
Nov 25
New
Dec 2
First Quarter
Dec 10
Full
Dec 17
Last Quarter

Hourly Weather History & Observations

Time (CST) Temp. Windchill Dew Point Humidity Pressure Visibility Wind Dir Wind Speed Gust Speed Precip Events Conditions
12:53 AM 44.1 °F 39.0 °F 41.0 °F 89% 30.24 in 7.0 mi South 9.2 mph - N/A   Clear
1:53 AM 45.0 °F 41.8 °F 41.0 °F 86% 30.24 in 8.0 mi SSE 5.8 mph - N/A   Clear
2:53 AM 44.1 °F 42.5 °F 39.9 °F 85% 30.23 in 8.0 mi SSE 3.5 mph - N/A   Clear
3:53 AM 44.1 °F 40.8 °F 39.9 °F 85% 30.23 in 8.0 mi SSE 5.8 mph - N/A   Clear
4:53 AM 42.8 °F 38.0 °F 39.2 °F 87% 30.23 in 7.0 mi South 8.1 mph - N/A   Clear
6:53 AM 41.0 °F 37.1 °F 39.0 °F 93% 30.26 in 7.0 mi South 5.8 mph - N/A   Clear
7:53 AM 44.1 °F 39.5 °F 41.0 °F 89% 30.26 in 6.0 mi SSE 8.1 mph - N/A   Clear
8:53 AM 48.9 °F - 44.1 °F 83% 30.27 in 8.0 mi South 9.2 mph - N/A   Clear
9:53 AM 55.9 °F - 46.0 °F 69% 30.25 in 10.0 mi South 11.5 mph - N/A   Clear
10:53 AM 61.0 °F - 44.1 °F 54% 30.24 in 10.0 mi South 13.8 mph - N/A   Clear
11:53 AM 63.0 °F - 41.0 °F 45% 30.21 in 10.0 mi SSW 13.8 mph - N/A   Clear
12:53 PM 64.0 °F - 39.9 °F 41% 30.19 in 10.0 mi SSW 12.7 mph - N/A   Clear
1:53 PM 64.9 °F - 42.1 °F 43% 30.16 in 10.0 mi SSW 10.4 mph - N/A   Clear
2:53 PM 64.9 °F - 43.0 °F 45% 30.15 in 10.0 mi South 13.8 mph - N/A   Clear
3:53 PM 63.0 °F - 39.9 °F 43% 30.15 in 10.0 mi South 13.8 mph - N/A   Clear
4:53 PM 59.0 °F - 41.0 °F 51% 30.14 in 10.0 mi South 11.5 mph - N/A   Clear
5:53 PM 53.1 °F - 39.0 °F 59% 30.13 in 10.0 mi SSE 9.2 mph - N/A   Clear
6:53 PM 53.1 °F - 41.0 °F 64% 30.14 in 10.0 mi South 10.4 mph - N/A   Clear
7:53 PM 48.9 °F - 41.0 °F 74% 30.14 in 10.0 mi South 9.2 mph - N/A   Clear
8:53 PM 48.0 °F - 41.0 °F 77% 30.12 in 10.0 mi South 9.2 mph - N/A   Clear
9:53 PM 46.4 °F 41.9 °F 42.8 °F 87% 30.11 in 10.0 mi South 9.2 mph - N/A   Clear
10:53 PM 48.2 °F - 42.8 °F 82% 30.09 in 10.0 mi South 13.8 mph - N/A   Clear
11:53 PM 48.0 °F - 42.1 °F 80% 30.07 in 10.0 mi South 12.7 mph - N/A   Clear